Regional Weather Roundup
Issued by NWS

Home | Current Version | Previous Version | Graphics & Text | Print | Product List | Glossary On
Versions: 1 2 3 4 5 6 7 8 9 10 11 12 13 14 15 16 17 18 19 20 21 22 23 24 25 26 27 28 29 30 31 32 33 34 35 36 37 38 39 40 41 42 43 44 45 46 47 48 49 50
000
ASUS43 KIND 231409
RWRIN

WEATHER ROUNDUP FOR INDIANA
NATIONAL WEATHER SERVICE INDIANAPOLIS IN
900 AM EST TUE JAN 23 2018

NOTE: "FAIR" INDICATES FEW OR NO CLOUDS BELOW 12,000 FEET WITH NO
SIGNIFICANT WEATHER AND/OR OBSTRUCTIONS TO VISIBILITY.

* - STATION DOES NOT REPORT WEATHER SUCH AS PRECIPITATION OR FOG.

+ - STATION NOT QUALITY CONTROLLED BY THE NATIONAL WEATHER SERVICE.
    USE DATA WITH CAUTION...ESPECIALLY DEWPOINT AND RELATIVE
    HUMIDITY OBSERVATIONS.

INZ001>003-010>013-019-020-231500-
NORTHWEST INDIANA

CITY           SKY/WX    TMP DP  RH WIND       PRES   REMARKS
GARY /AIRPORT/ LGT SNOW  34  32  93 W13       29.69R WCI  25
KNOX *+        CLOUDY    34  32  93 W12       29.64R WCI  25
LA PORTE +     LGT SNOW  32  31  95 NW10G18   29.66R WCI  24
MICHIGAN CITY+ LGT SNOW  32  32 100 NW13      29.68R VSB 1   WCI  22
MONTICELLO +   DRIZZLE   34  32  94 SW16      29.69R WCI  23
RENSSELAER +   DRIZZLE   34  32  93 SW14      29.69R WCI  24
VALPARAISO     SNOW      33  31  92 NW15G21   29.68R VSB 1/2 WCI  23

$$

LMZ046-743>745-231500-
SOUTHERN LAKE MICHIGAN

STATION/POSITION TIME  TEMP    WIND        PRES    WAVE
                       AIR SEA DIR/SP/G            HT
                 (UTC) (F)     (DEG/KT/KT) (MB)    (FT)
BURNS HARBOR     1340   31     310/ 17/ 20 1005.4R
MICHIGAN CITY    1340   31     280/ 22/ 24   N/A

$$

INZ004-005-014>016-021>024-231500-
NORTH CENTRAL INDIANA

CITY           SKY/WX    TMP DP  RH WIND       PRES   REMARKS
ELKHART        LGT RAIN  34  32  93 W10       29.60R WCI  26
GOSHEN         LGT RAIN  35  33  92 SW16      29.60R FOG     WCI  25
LOGANSPORT +   DRIZZLE   32  32 100 SW15      29.69R WCI  22
ROCHESTER +    LGT RAIN  36  36 100 SW12G20   29.65S WCI  27
SOUTH BEND     LGT SNOW  32  31  96 W14       29.63R VSB 3/4 WCI  22
WARSAW +       RAIN      34  34 100 SW16      29.62R WCI  23

$$

INZ006>009-017-018-025>027-231500-
NORTHEAST INDIANA

CITY           SKY/WX    TMP DP  RH WIND       PRES   REMARKS
AUBURN +       CLOUDY   N/A N/A N/A SW9G16    29.62S
FORT WAYNE     CLOUDY    37  34  89 SW18      29.64S WCI  27
HUNTINGTON +   CLOUDY    35  33  94 W13G22    29.66R WCI  26
KENDALLVILLE + LGT RAIN  35  34  96 SW14      29.60R WCI  25

$$

INZ028-029-035-036-043>045-051>053-231500-
WEST CENTRAL INDIANA

CITY           SKY/WX    TMP DP  RH WIND       PRES   REMARKS
CRAWFORDSVL +  CLOUDY    32  32 100 MISG      29.74R
GREENCASTLE +  CLOUDY    32  32 100 SW7       29.76R WCI  26
LAFAYETTE      CLOUDY    34  32  92 W8        29.72R WCI  27
TERRE HAUTE    CLOUDY    35  32  88 W14       29.79R WCI  26

$$

INZ030>032-037>040-046>048-054>057-064-065-231500-
CENTRAL INDIANA

CITY           SKY/WX    TMP DP  RH WIND       PRES   REMARKS
ANDERSON       CLOUDY    34  32  93 SW12G23   29.72  WCI  25
COLUMBUS       CLOUDY    36  30  80 W16       29.79R WCI  26
FISHERS *+     CLOUDY    32  32 100 W6G16     29.74R WCI  26
FRANKFORT +    CLOUDY    35  33  92 SW12      29.72S WCI  27
GREENWOOD *+   CLOUDY    36  32  87 W15       29.77R WCI  26
INDIANAPOLIS   FLURRIES  34  32  92 W16       29.75R WCI  24
-EAGLE CREEK   CLOUDY    34  31  88 VRB5      29.74R WCI  30
MARION +       CLOUDY    33  32  96 W21       29.70R WCI  21
MT COMFORT *+  CLOUDY    32  32 100 W14       29.75R WCI  22
SHELBYVILLE    LGT RAIN  36  31  82 W17G24    29.76R WCI  26
ZIONSVILLE +   CLOUDY    32  31  96 W13G18    29.73S WCI  22

$$

INZ033-034-041-042-049-050-058-059-231500-
EAST CENTRAL INDIANA

CITY           SKY/WX    TMP DP  RH WIND       PRES   REMARKS
MUNCIE         CLOUDY    36  31  82 SW14G24   29.70R WCI  27
RICHMOND +     CLOUDY    32  32 100 W22G28    29.73R WCI  19

$$

INZ060-061-067>069-081>083-085>088-231500-
SOUTHWEST INDIANA

CITY           SKY/WX    TMP DP  RH WIND       PRES   REMARKS
EVANSVILLE     CLOUDY    38  32  79 W15G28    29.90R WCI  29
HUNTINGBURG +  CLOUDY    38  31  76 W16       29.88R WCI  29
WASHINGTON +   CLOUDY    36  32  87 W15G21    29.85R WCI  26

$$

INZ062-063-066-070>080-084-089>092-231500-
SOUTH CENTRAL AND SOUTHEAST INDIANA

CITY           SKY/WX    TMP DP  RH WIND       PRES   REMARKS
BATESVILLE *+    N/A    N/A N/A N/A MISG        N/A
BEDFORD +      CLOUDY    36  32  87 SW17G23   29.80  WCI  25
BLOOMINGTON    CLOUDY    35  33  92 W13G20    29.79R FOG     WCI  26
FRENCH LICK *+ CLOUDY    36  30  80 SW14G24   29.83R WCI  27
MADISON *+     CLOUDY    37  30  75 SW12G24   29.83R WCI  30
NORTH VERNON + CLOUDY    36  30  80 SW16G25   29.79R WCI  26
SEYMOUR +      CLOUDY    37  32  81 W18G25    29.81R WCI  27

$$





USA.gov is the U.S. government's official web portal to all federal, state and local government web resources and services.